User: anonymous   Login
Location: Holcomb Observatory
(44.4922°N, 73.1654°W)
Time: 12:36:18
(UTC-04:00)
Language:

Cosmos 1727 Rocket - Orbit

View from above orbital plane
View from above orbital plane
View from above satellite
View from above satellite

Ground track
Ground track

The orbit data is extracted from the following two-line orbital elements,

1 16511U 86008B   18109.84919944 +.00000069 +00000-0 +55027-4 0  9991
2 16511 082.9465 352.5028 0024909 143.3854 264.9946 13.75819746618182
Epoch (UTC): 19 April 2018 20:22:50
Eccentricity: 0.0024909
inclination: 82.9465°
perigee height: 960 km
apogee height: 997 km
right ascension of ascending node: 352.5028°
argument of perigee: 143.3854°
revolutions per day: 13.75819746
mean anomaly at epoch: 264.9946°
orbit number at epoch: 61818

The dashed part of the orbit path shows where the satellite is in the earth's shadow,  

DLR